Theta_e
303 298 295 298 301 301 301 300 299 303 307 306 305 305 308 310 309 309 310 311 311 313 316 319 321 328 340 361 362 359 360 366 361 358 356 356 352 357 356 361 364 364 360 360
301 295 301 302 301 300 300 298 298 302 306 305 305 304 309 311 309 310 310 311 312 313 315 317 320 327 333 348 358 361 360 363 363 361 359 358 359 359 360 360 363 363 361 361
298 300 304 302 300 298 297 297 298 297 302 305 304 303 306 309 312 312 312 313 313 312 313 316 319 323 330 338 351 351 360 362 363 362 362 361 359 364 358 361 360 360 359 359
300 304 301 300 299 300 295 300 299 298 298 294 303 293 304 306 307 310 312 311 312 312 314 317 319 323 326 331 337 344 357 361 363 364 356 357 351 352 361 360 363 361 360 358
298 299 300 298 299 301 298 302 299 298 296 296 297 295 300 306 303 307 311 313 314 313 313 315 318 322 326 331 331 333 344 354 360 358 363 357 354 354 356 356 356 358 359 358
300 305 302 301 302 303 304 300 300 298 296 289 295 296 296 301 304 308 310 312 314 314 315 316 319 322 322 327 330 334 339 348 356 356 359 354 350 350 349 351 352 353 354 356
297 298 301 302 297 301 299 296 289 287 288 287 296 294 297 304 307 309 310 312 314 315 315 316 316 317 322 322 327 333 338 341 351 355 357 353 350 357 352 353 350 349 350 353
287 287 298 302 299 296 297 296 290 283 284 288 296 291 297 306 308 311 312 313 315 315 315 316 317 318 317 321 324 330 337 340 350 353 352 352 355 353 353 354 353 348 348 350
291 291 300 300 301 300 296 289 297 292 293 289 292 297 303 306 306 308 309 312 314 316 316 317 318 319 319 321 328 332 337 344 352 352 351 353 352 353 351 351 348 346 347 345
295 287 295 297 301 301 299 301 290 291 284 283 290 293 295 301 304 307 309 310 315 317 317 319 318 320 321 321 332 340 348 347 346 348 349 350 349 347 343 342 341 341 341 341
295 291 291 295 294 294 295 293 293 293 294 287 286 292 306 305 308 308 309 311 315 317 325 329 321 322 323 326 343 344 344 343 341 342 339 339 339 338 338 338 338 339 340 339
294 292 288 291 295 299 298 297 297 289 289 294 292 290 307 310 312 311 313 317 322 330 332 334 331 335 337 340 341 339 337 336 336 335 336 335 335 335 332 330 330 330 329 330
296 290 285 290 296 297 295 297 297 297 295 291 290 293 310 309 314 317 320 323 326 329 330 331 333 335 335 334 333 334 335 334 333 332 330 330 330 329 328 328 328 327 326 325
298 291 288 284 288 292 290 293 295 296 291 293 293 297 304 305 310 313 319 322 324 326 328 330 331 334 334 334 332 331 330 330 329 329 328 326 325 325 324 323 322 321 321 320
296 286 290 291 292 293 292 292 294 294 296 293 296 297 300 308 311 312 318 321 322 323 326 327 329 330 326 328 329 328 327 327 326 325 324 322 322 321 320 319 320 320 319 318
297 288 290 287 292 293 291 294 295 296 298 298 297 295 307 311 312 313 317 318 319 321 323 324 323 324 324 324 323 322 322 323 323 321 319 319 319 319 319 319 318 317 316 316
293 290 287 283 290 288 289 294 296 298 301 300 296 301 306 308 309 312 314 316 316 313 317 318 318 318 318 319 319 319 320 320 319 317 317 316 316 315 315 315 314 314 314 314
292 290 288 283 286 281 296 302 302 301 303 304 304 304 307 309 311 314 316 313 311 313 312 313 314 315 316 318 318 318 318 316 315 314 313 313 312 310 311 311 311 312 312 311
297 292 285 281 285 289 299 301 300 300 300 307 305 304 309 310 306 305 312 311 310 311 311 312 313 314 313 314 314 313 312 311 310 309 308 309 308 308 308 308 309 310 311 312
296 294 287 285 284 285 293 299 304 309 297 308 308 303 307 307 298 300 306 309 309 310 312 311 312 311 312 313 313 311 309 307 307 307 307 307 307 307 306 308 309 310 309 306
288 287 285 285 287 292 295 299 307 295 297 311 313 311 310 306 305 303 304 304 306 308 309 311 310 308 309 309 309 306 305 304 306 306 306 307 307 307 309 308 307 307 305 305
289 289 288 289 288 286 295 300 297 302 309 311 313 313 312 308 305 304 303 302 303 304 306 307 306 307 308 307 306 304 303 305 306 307 306 306 307 306 306 306 305 305 306 304
288 291 288 287 286 293 298 296 301 310 309 309 310 313 308 305 304 304 304 303 303 303 304 306 305 305 306 306 305 302 302 304 304 305 304 305 305 304 304 303 303 302 303 301
293 295 290 290 290 291 295 297 298 301 303 307 308 308 307 302 301 302 302 303 303 304 304 304 304 303 302 305 304 303 302 302 304 305 305 304 302 301 302 300 300 298 297 299
292 294 290 289 291 293 295 296 296 297 299 299 300 301 301 301 300 300 300 301 302 303 305 305 304 303 302 302 301 302 302 304 303 304 304 303 301 299 297 294 294 294 290 290
294 292 290 286 292 294 295 297 298 297 296 298 299 299 299 300 299 300 300 301 303 303 304 304 303 302 302 301 301 301 301 302 304 301 301 300 300 298 296 294 291 289 289 289
Wind_Speed
18 16 22 23 24 27 26 25 28 27 26 29 25 30 25 23 21 16 22 24 26 22 18 17 18 14 12 6 9 14 14 12 13 11 11 10 10 8 8 6 7 7 10 9
18 24 24 21 24 26 27 27 29 26 26 24 24 29 25 25 25 22 19 15 13 17 19 20 19 13 15 14 11 6 13 14 13 10 10 8 8 8 7 7 4 6 8 7
23 25 25 26 24 25 26 26 25 26 25 28 21 24 24 19 23 20 22 20 16 14 16 20 18 19 15 17 15 12 17 16 14 14 8 6 6 5 8 6 6 5 8 6
22 24 27 26 22 26 24 23 26 26 24 20 22 16 21 19 17 19 23 24 20 20 18 15 18 17 17 18 14 10 5 16 15 12 11 9 6 4 1 5 4 5 7 6
19 29 21 22 26 24 21 19 22 25 23 24 27 15 18 20 23 22 22 20 22 23 19 17 13 13 18 17 15 14 13 9 12 13 6 7 6 2 3 3 6 5 4 6
27 26 24 24 22 24 21 16 29 23 18 19 23 23 16 23 20 24 23 23 22 19 21 21 16 11 14 18 17 14 12 9 11 13 9 12 11 8 7 6 6 5 4 3
22 28 27 25 29 27 19 10 13 14 16 16 22 26 18 23 24 21 21 27 26 22 20 20 21 16 11 18 19 16 16 15 12 13 10 11 10 5 12 8 6 8 6 3
16 22 30 22 20 22 22 19 11 13 15 20 25 25 22 26 26 24 14 23 24 24 21 21 21 19 18 15 17 19 18 17 16 15 13 10 9 5 7 7 5 4 5 5
10 18 16 16 19 18 26 8 10 17 23 16 14 27 28 23 29 28 14 8 20 18 20 21 20 17 17 13 15 19 17 15 15 14 13 11 9 8 9 11 10 8 9 7
7 9 12 20 9 22 21 5 16 15 21 9 14 21 19 25 27 25 19 10 7 11 11 12 19 16 17 16 17 20 18 17 13 11 11 10 13 12 13 12 12 10 10 8
5 6 6 5 6 20 18 11 3 6 19 16 9 8 13 23 17 22 16 15 11 10 9 7 12 12 15 18 21 20 18 18 15 14 15 15 14 14 13 12 10 8 8 8
4 6 8 16 13 22 13 20 20 5 14 17 6 4 20 21 10 15 10 12 11 16 13 12 10 19 22 22 21 18 18 19 16 15 15 15 14 14 14 13 11 10 9 8
2 3 8 11 11 3 5 13 16 11 4 21 12 9 11 16 14 11 16 13 12 14 14 10 15 17 21 20 20 19 18 18 16 16 16 16 16 15 14 12 10 9 9 8
6 3 7 11 13 10 8 20 13 13 9 15 14 19 4 10 13 6 9 11 11 14 13 12 14 17 19 19 18 18 16 16 16 17 17 17 15 14 13 12 11 10 9 7
1 4 12 17 19 21 22 23 20 17 16 16 15 14 10 10 8 7 5 9 12 14 16 15 16 17 18 18 16 16 16 17 18 17 16 16 15 14 13 12 10 9 8 7
3 4 14 19 19 19 25 24 22 19 18 14 12 6 2 5 6 3 8 9 11 12 17 17 17 18 18 15 15 17 18 17 17 16 15 15 15 13 11 11 9 8 9 8
15 8 6 9 10 21 11 25 20 18 20 18 19 13 9 11 10 6 12 9 16 17 8 15 18 18 15 16 17 17 16 16 15 15 15 14 13 12 10 10 11 8 8 7
16 8 3 9 10 6 12 13 17 17 19 12 20 13 11 13 9 6 12 17 19 25 16 15 18 17 17 17 17 16 13 14 14 14 14 13 13 12 10 11 9 7 6 5
10 6 3 4 7 8 16 16 9 7 14 14 22 17 16 14 18 12 12 17 16 18 17 16 17 17 18 17 16 15 14 15 15 14 12 12 11 10 10 9 7 6 4 4
6 7 4 4 6 7 9 18 20 12 7 27 27 16 19 20 13 4 13 16 18 15 16 16 18 17 16 15 13 14 15 14 13 12 11 10 10 9 10 7 6 5 7 8
3 3 4 5 6 3 15 25 19 4 4 9 26 29 25 14 12 15 17 17 16 15 17 16 16 15 13 14 14 15 13 12 11 9 9 10 7 9 8 8 8 6 7 6
3 3 1 3 3 3 20 14 8 10 11 7 17 21 17 26 24 17 18 17 16 16 15 13 11 11 11 12 13 12 10 9 8 8 9 7 6 8 9 7 7 6 4 5
2 4 2 5 4 10 9 10 14 13 14 8 5 20 25 26 22 20 17 18 16 13 10 9 8 9 8 12 10 10 9 7 5 5 6 5 11 9 9 6 6 6 6 4
4 6 3 4 5 12 10 9 13 15 17 19 16 19 20 25 20 17 15 14 14 13 9 7 8 10 10 10 10 8 8 6 4 4 8 10 9 8 8 7 6 7 6 4
4 3 3 3 3 5 12 12 13 17 19 19 21 15 18 20 19 19 15 14 12 12 9 7 8 9 10 10 8 6 7 2 4 6 6 8 6 8 9 9 7 8 8 7
6 1 3 3 7 4 10 12 14 21 18 17 21 19 17 18 18 18 13 8 7 12 13 11 9 9 9 9 8 8 5 4 3 7 5 4 6 7 6 7 8 13 9 9
Wind_Direction
218 231 233 227 226 247 257 253 253 251 230 240 240 237 231 217 219 233 228 238 215 224 226 221 216 193 193 178 163 166 159 157 166 178 188 194 205 198 204 205 202 181 180 182
232 233 242 246 251 245 236 249 264 269 271 271 239 242 236 217 207 220 239 244 221 208 220 236 202 195 182 175 170 166 169 166 172 181 185 204 189 202 201 195 177 136 139 141
242 239 238 236 244 251 251 248 246 250 260 268 265 262 242 241 210 212 206 237 217 218 237 219 215 193 174 178 167 181 174 176 178 183 175 188 205 210 191 173 137 125 134 142
247 242 244 254 246 237 239 250 257 253 259 251 249 258 248 228 245 238 211 211 208 207 228 231 216 191 183 169 157 146 165 175 182 178 185 191 184 174 184 124 95 136 145 161
264 289 298 265 242 269 291 268 241 262 244 257 256 253 251 222 224 234 240 226 216 199 215 237 236 187 180 159 159 164 175 186 182 181 199 164 150 158 121 133 150 172 187 186
262 277 267 259 257 273 277 290 300 232 249 243 245 250 227 255 229 220 217 222 222 209 201 220 232 216 182 166 167 165 167 186 183 179 190 157 164 173 172 172 172 168 169 179
283 271 251 251 259 258 240 234 242 231 224 241 234 244 243 238 247 245 244 210 208 203 211 202 217 216 200 185 168 166 166 180 189 171 169 153 165 204 144 153 165 166 167 154
220 258 250 258 233 249 270 246 244 211 225 237 222 235 229 231 254 249 275 219 191 197 201 200 209 201 204 184 169 170 165 174 175 162 151 145 153 133 135 164 118 75 87 114
295 277 330 312 320 242 231 200 249 275 240 239 240 225 232 230 220 238 243 288 184 192 200 196 204 193 189 180 162 156 159 163 154 156 148 151 142 135 106 92 92 81 89 90
23 297 284 261 287 262 252 319 205 219 252 192 261 252 222 214 210 219 210 211 202 181 189 196 196 191 182 184 143 150 128 122 127 125 122 114 110 106 94 88 92 94 99 102
341 259 292 55 249 245 241 207 145 300 253 232 241 271 336 316 193 194 183 179 195 155 71 340 240 201 167 131 111 118 118 107 106 106 108 110 107 103 101 101 99 93 99 105
129 278 275 276 191 238 308 218 206 180 249 249 190 256 293 323 45 160 145 148 136 99 79 37 75 88 92 97 101 102 106 109 113 115 114 112 110 106 98 94 89 81 77 71
331 250 312 311 172 144 323 245 244 220 244 267 284 209 164 316 46 41 103 110 110 102 101 101 101 100 99 102 105 112 113 116 120 120 114 108 102 102 100 98 94 91 83 71
275 251 273 284 308 285 304 297 295 222 214 241 252 286 201 165 119 191 127 126 143 132 128 121 121 109 114 111 114 108 122 127 125 114 110 107 106 102 95 89 82 75 63 61
153 288 302 296 298 291 278 276 279 269 199 242 268 270 274 18 59 117 158 159 150 149 144 143 123 112 114 113 116 131 128 117 111 110 110 109 104 97 92 88 84 77 63 47
205 290 311 295 279 278 260 257 253 257 263 202 249 251 271 131 58 192 145 132 138 134 132 114 119 117 114 118 124 116 108 108 112 116 114 106 103 103 102 97 86 70 60 45
292 288 303 263 344 329 259 234 222 231 233 226 202 206 85 157 137 175 103 102 88 60 106 135 112 110 114 112 104 103 109 110 115 112 108 106 104 98 91 82 71 58 57 45
248 249 228 294 321 239 253 184 212 210 230 202 116 141 153 141 117 121 110 101 99 104 97 78 95 100 96 96 94 101 110 107 101 93 89 85 82 75 69 67 61 50 51 45
213 211 263 274 278 272 40 27 357 278 214 213 128 140 138 117 85 44 87 74 80 83 89 86 89 88 84 85 84 92 88 86 84 80 76 75 75 75 68 63 60 54 58 66
155 186 187 283 279 31 21 341 333 316 219 122 138 143 129 141 115 94 85 89 78 76 78 81 82 83 86 88 95 93 83 79 77 78 77 68 65 71 72 65 75 61 55 58
144 222 223 267 278 58 353 330 309 212 51 83 147 150 155 141 111 122 102 89 87 87 90 85 82 83 85 76 75 75 78 70 69 61 71 69 59 96 86 72 69 62 74 76
218 248 268 245 306 9 344 338 14 308 303 228 144 150 129 117 116 120 112 105 101 95 90 84 87 89 93 94 90 79 66 58 58 60 71 77 80 60 81 79 85 70 59 86
46 15 28 21 14 307 336 336 338 15 57 84 57 112 118 118 121 124 122 119 112 97 85 90 100 87 76 65 71 75 48 53 61 88 82 81 71 75 80 76 67 74 51 52
39 23 77 211 340 347 7 7 25 35 55 75 79 98 113 111 111 113 116 122 119 116 109 111 95 88 83 89 87 83 60 13 28 66 67 67 68 79 60 60 57 52 29 30
343 18 63 73 317 322 43 43 44 61 58 69 69 77 100 111 113 110 108 113 111 119 131 138 133 119 112 96 77 74 77 347 108 92 74 98 101 95 87 65 41 81 50 31
353 250 35 75 308 37 62 57 57 68 69 69 84 81 76 87 98 103 97 89 134 146 151 130 118 114 105 103 105 98 71 41 58 110 102 55 112 109 105 111 92 59 71 59